TimePDT,TemperatureF,Dew PointF,Humidity,Sea Level PressureIn,VisibilityMPH,Wind Direction,Wind SpeedMPH,Gust SpeedMPH,PrecipitationIn,Events,Conditions,WindDirDegrees,DateUTC
12:15 AM,48.2,-9999,N/A,30.15,10.0,Calm,Calm,-,N/A,,Clear,0,2012-10-03 07:15:00
12:35 AM,46.4,-9999,N/A,30.15,10.0,SSE,3.5,-,N/A,,Clear,160,2012-10-03 07:35:00
12:55 AM,46.4,-9999,N/A,30.15,10.0,SSW,5.8,-,N/A,,Clear,200,2012-10-03 07:55:00
1:15 AM,48.2,-9999,N/A,30.16,10.0,South,5.8,-,N/A,,Clear,190,2012-10-03 08:15:00
1:35 AM,48.2,-9999,N/A,30.16,10.0,South,6.9,-,N/A,,Clear,190,2012-10-03 08:35:00
1:55 AM,48.2,-9999,N/A,30.17,10.0,South,8.1,-,N/A,,Clear,180,2012-10-03 08:55:00
2:15 AM,50.0,-9999,N/A,30.16,10.0,South,8.1,-,N/A,,Clear,180,2012-10-03 09:15:00
2:35 AM,50.0,-9999,N/A,30.17,10.0,South,8.1,-,N/A,,Clear,190,2012-10-03 09:35:00
2:55 AM,50.0,-9999,N/A,30.18,10.0,South,4.6,-,N/A,,Clear,170,2012-10-03 09:55:00
3:15 AM,46.4,-9999,N/A,30.17,10.0,SE,5.8,-,N/A,,Clear,140,2012-10-03 10:15:00
3:35 AM,44.6,-9999,N/A,30.17,10.0,SSW,3.5,-,N/A,,Clear,210,2012-10-03 10:35:00
3:55 AM,42.8,-9999,N/A,30.18,10.0,Calm,Calm,-,N/A,,Clear,0,2012-10-03 10:55:00
4:35 AM,44.6,-9999,N/A,30.19,10.0,Calm,Calm,-,N/A,,Clear,0,2012-10-03 11:35:00
4:55 AM,41.0,-9999,N/A,30.19,10.0,South,5.8,-,N/A,,Clear,170,2012-10-03 11:55:00
5:15 AM,41.0,-9999,N/A,30.20,10.0,Calm,Calm,-,N/A,,Clear,0,2012-10-03 12:15:00
5:35 AM,37.4,-9999,N/A,30.20,10.0,SE,5.8,-,N/A,,Clear,140,2012-10-03 12:35:00
6:15 AM,39.2,-9999,N/A,30.20,10.0,South,5.8,-,N/A,,Clear,190,2012-10-03 13:15:00
6:35 AM,39.2,-9999,N/A,30.20,10.0,SSE,4.6,-,N/A,,Clear,160,2012-10-03 13:35:00
6:55 AM,42.8,-9999,N/A,30.20,10.0,South,9.2,-,N/A,,Clear,180,2012-10-03 13:55:00
7:15 AM,41.0,-9999,N/A,30.20,10.0,South,8.1,-,N/A,,Clear,180,2012-10-03 14:15:00
7:35 AM,46.4,-9999,N/A,30.21,10.0,South,6.9,-,N/A,,Clear,180,2012-10-03 14:35:00
8:15 AM,50.0,-9999,N/A,30.23,10.0,East,3.5,-,N/A,,Clear,90,2012-10-03 15:15:00
8:35 AM,53.6,-9999,N/A,30.23,10.0,South,3.5,-,N/A,,Clear,180,2012-10-03 15:35:00
8:55 AM,57.2,-9999,N/A,30.24,10.0,SSW,6.9,-,N/A,,Clear,210,2012-10-03 15:55:00
9:15 AM,59.0,-9999,N/A,30.24,10.0,SSW,5.8,-,N/A,,Clear,200,2012-10-03 16:15:00
9:35 AM,62.6,-9999,N/A,30.24,10.0,South,4.6,-,N/A,,Clear,180,2012-10-03 16:35:00
9:55 AM,64.4,-9999,N/A,30.24,10.0,Calm,Calm,-,N/A,,Clear,0,2012-10-03 16:55:00
10:15 AM,66.2,-9999,N/A,30.23,10.0,South,4.6,-,N/A,,Clear,180,2012-10-03 17:15:00
10:35 AM,68.0,-9999,N/A,30.23,10.0,SSE,4.6,-,N/A,,Clear,150,2012-10-03 17:35:00
10:55 AM,71.6,-9999,N/A,30.22,10.0,SSE,4.6,-,N/A,,Clear,150,2012-10-03 17:55:00
11:15 AM,73.4,-9999,N/A,30.22,10.0,ESE,4.6,-,N/A,,Clear,120,2012-10-03 18:15:00
11:35 AM,71.6,-9999,N/A,30.22,10.0,NE,4.6,-,N/A,,Clear,50,2012-10-03 18:35:00
11:55 AM,73.4,-9999,N/A,30.21,10.0,NE,3.5,-,N/A,,Clear,50,2012-10-03 18:55:00
12:15 PM,73.4,-9999,N/A,30.20,10.0,Calm,Calm,-,N/A,,Clear,0,2012-10-03 19:15:00
12:35 PM,75.2,-9999,N/A,30.19,10.0,SE,5.8,17.3,N/A,,Clear,140,2012-10-03 19:35:00
12:55 PM,77.0,-9999,N/A,30.19,10.0,NNE,6.9,-,N/A,,Clear,20,2012-10-03 19:55:00
1:15 PM,77.0,-9999,N/A,30.18,10.0,NW,11.5,17.3,N/A,,Clear,320,2012-10-03 20:15:00
1:35 PM,77.0,-9999,N/A,30.17,10.0,North,8.1,21.9,N/A,,Clear,10,2012-10-03 20:35:00
1:55 PM,78.8,-9999,N/A,30.17,10.0,North,9.2,17.3,N/A,,Clear,360,2012-10-03 20:55:00
2:15 PM,78.8,-9999,N/A,30.17,10.0,North,8.1,19.6,N/A,,Clear,10,2012-10-03 21:15:00
2:35 PM,78.8,-9999,N/A,30.17,10.0,WNW,9.2,19.6,N/A,,Clear,300,2012-10-03 21:35:00
2:55 PM,78.8,-9999,N/A,30.17,10.0,West,4.6,-,N/A,,Clear,260,2012-10-03 21:55:00
3:15 PM,78.8,-9999,N/A,30.16,10.0,West,6.9,-,N/A,,Clear,260,2012-10-03 22:15:00
3:35 PM,78.8,-9999,N/A,30.16,10.0,NW,12.7,19.6,N/A,,Clear,310,2012-10-03 22:35:00
3:55 PM,78.8,-9999,N/A,30.17,10.0,NW,5.8,-,N/A,,Clear,320,2012-10-03 22:55:00
4:15 PM,78.8,-9999,N/A,30.16,10.0,NW,12.7,17.3,N/A,,Clear,320,2012-10-03 23:15:00
4:35 PM,77.0,-9999,N/A,30.17,10.0,NNW,9.2,17.3,N/A,,Clear,330,2012-10-03 23:35:00
4:55 PM,75.2,-9999,N/A,30.17,10.0,North,17.3,20.7,N/A,,Clear,360,2012-10-03 23:55:00
5:15 PM,73.4,-9999,N/A,30.17,10.0,NNE,12.7,-,N/A,,Clear,20,2012-10-04 00:15:00
5:35 PM,71.6,-9999,N/A,30.17,10.0,North,12.7,-,N/A,,Clear,10,2012-10-04 00:35:00
5:55 PM,69.8,-9999,N/A,30.18,9.0,NNE,12.7,-,N/A,,Clear,30,2012-10-04 00:55:00
6:15 PM,66.2,-9999,N/A,30.18,10.0,NNE,10.4,-,N/A,,Clear,20,2012-10-04 01:15:00
6:35 PM,62.6,-9999,N/A,30.18,10.0,NNE,8.1,-,N/A,,Clear,20,2012-10-04 01:35:00
6:55 PM,57.2,-9999,N/A,30.19,10.0,NNW,4.6,-,N/A,,Clear,330,2012-10-04 01:55:00
7:15 PM,55.4,-9999,N/A,30.20,10.0,NW,10.4,-,N/A,,Clear,320,2012-10-04 02:15:00
7:35 PM,57.2,-9999,N/A,30.20,10.0,NNW,6.9,-,N/A,,Clear,330,2012-10-04 02:35:00
7:55 PM,55.4,-9999,N/A,30.21,10.0,North,3.5,-,N/A,,Clear,360,2012-10-04 02:55:00
8:15 PM,55.4,-9999,N/A,30.21,10.0,ESE,3.5,-,N/A,,Clear,110,2012-10-04 03:15:00
8:35 PM,53.6,-9999,N/A,30.22,10.0,NNE,3.5,-,N/A,,Clear,30,2012-10-04 03:35:00
8:55 PM,51.8,-9999,N/A,30.22,10.0,ESE,3.5,-,N/A,,Clear,110,2012-10-04 03:55:00
9:15 PM,50.0,-9999,N/A,30.22,10.0,East,3.5,-,N/A,,Clear,90,2012-10-04 04:15:00
9:35 PM,46.4,-9999,N/A,30.22,10.0,South,3.5,-,N/A,,Clear,170,2012-10-04 04:35:00
9:55 PM,44.6,-9999,N/A,30.22,10.0,South,3.5,-,N/A,,Clear,180,2012-10-04 04:55:00
10:15 PM,42.8,-9999,N/A,30.22,10.0,South,5.8,-,N/A,,Clear,190,2012-10-04 05:15:00
10:35 PM,41.0,-9999,N/A,30.22,10.0,SSW,4.6,-,N/A,,Clear,200,2012-10-04 05:35:00
10:55 PM,42.8,-9999,N/A,30.23,10.0,South,6.9,-,N/A,,Clear,180,2012-10-04 05:55:00
11:15 PM,41.0,-9999,N/A,30.23,10.0,South,4.6,-,N/A,,Clear,170,2012-10-04 06:15:00
11:35 PM,41.0,-9999,N/A,30.23,10.0,South,6.9,-,N/A,,Clear,170,2012-10-04 06:35:00
11:55 PM,41.0,-9999,N/A,30.23,10.0,South,3.5,-,N/A,,Clear,170,2012-10-04 06:55:00